• In Russia
  • List of Countries
  • For 7 days
  • Water Temperature
  • Satellite Maps
  • Weather Map
  • Weather Widgets
  • user-avatar
    Login

    Hourly Weather Mafeteng

    Today, 19 January, Saturday

    Time Temperature Precipitation Wind Pressure Humidity
    00:00 +21°C° 0 mm 1 mps 624 mmHg 22%
    01:00 +20°C° 0 mm 1 mps 623 mmHg 24%
    02:00 +20°C° 0 mm 2 mps 625 mmHg 21%
    03:00 +19°C° 0 mm 2 mps 624 mmHg 25%
    04:00 +17°C° 0 mm 2 mps 624 mmHg 30%
    05:00 +16°C° 0 mm 1 mps 624 mmHg 34%
    06:00 +18°C° 0 mm 2 mps 625 mmHg 37%
    07:00 +19°C° 0 mm 3 mps 626 mmHg 41%
    08:00 +21°C° 0 mm 5 mps 627 mmHg 45%
    09:00 +23°C° 0 mm 5 mps 628 mmHg 36%
    10:00 +25°C° 0 mm 5 mps 628 mmHg 27%
    11:00 +27°C° 0 mm 6 mps 628 mmHg 18%
    12:00 +28°C° 0 mm 6 mps 628 mmHg 15%
    13:00 +29°C° 0 mm 6 mps 628 mmHg 13%
    14:00 +30°C° 0 mm 6 mps 628 mmHg 11%
    15:00 +30°C° 0 mm 7 mps 628 mmHg 10%
    16:00 +30°C° 0 mm 7 mps 628 mmHg 10%
    17:00 +29°C° 0 mm 7 mps 628 mmHg 10%
    18:00 +27°C° 0 mm 6 mps 628 mmHg 12%
    19:00 +24°C° 0 mm 6 mps 628 mmHg 14%
    20:00 +22°C° 0 mm 6 mps 628 mmHg 16%
    21:00 +20°C° 0 mm 5 mps 628 mmHg 26%
    22:00 +19°C° 0 mm 4 mps 629 mmHg 36%
    23:00 +18°C° 0 mm 3 mps 629 mmHg 45%

    Tomorrow, 20 January, Sunday

    Time Temperature Precipitation Wind Pressure Humidity
    00:00 +17°C° 0 mm 3 mps 629 mmHg 53%
    01:00 +16°C° 0 mm 2 mps 629 mmHg 60%
    02:00 +15°C° 0 mm 2 mps 629 mmHg 68%
    03:00 +14°C° 0 mm 2 mps 629 mmHg 71%
    04:00 +13°C° 0 mm 1 mps 628 mmHg 74%
    05:00 +13°C° 0 mm 1 mps 628 mmHg 77%
    06:00 +14°C° 0 mm 1 mps 629 mmHg 70%
    07:00 +16°C° 0 mm 1 mps 630 mmHg 63%
    08:00 +19°C° 0 mm 1 mps 631 mmHg 56%
    09:00 +21°C° 0 mm 1 mps 631 mmHg 47%
    10:00 +23°C° 0 mm 2 mps 631 mmHg 39%
    11:00 +24°C° 0 mm 3 mps 631 mmHg 30%
    12:00 +26°C° 0 mm 3 mps 631 mmHg 26%
    13:00 +27°C° 0 mm 3 mps 631 mmHg 22%
    14:00 +29°C° 0 mm 3 mps 631 mmHg 17%
    15:00 +29°C° 0 mm 3 mps 630 mmHg 16%
    16:00 +29°C° 0 mm 3 mps 630 mmHg 16%
    17:00 +29°C° 0 mm 2 mps 630 mmHg 15%
    18:00 +27°C° 0 mm 2 mps 629 mmHg 19%
    19:00 +24°C° 0 mm 1 mps 629 mmHg 22%
    20:00 +22°C° 0 mm 1 mps 628 mmHg 26%
    21:00 +21°C° 0 mm 1 mps 628 mmHg 27%
    22:00 +21°C° 0 mm 1 mps 629 mmHg 27%
    23:00 +20°C° 0 mm 1 mps 629 mmHg 27%

    Day after tomorrow, 21 January, Monday

    Time Temperature Precipitation Wind Pressure Humidity
    00:00 +20°C° 0 mm 1 mps 629 mmHg 29%
    01:00 +19°C° 0 mm 1 mps 629 mmHg 32%
    02:00 +17°C° 0 mm 2 mps 628 mmHg 34%
    03:00 +17°C° 0 mm 2 mps 628 mmHg 38%
    04:00 +16°C° 0 mm 2 mps 628 mmHg 42%
    05:00 +16°C° 0 mm 2 mps 628 mmHg 47%
    06:00 +18°C° 0 mm 3 mps 629 mmHg 46%
    07:00 +19°C° 0 mm 4 mps 630 mmHg 46%
    08:00 +21°C° 0 mm 5 mps 630 mmHg 46%
    09:00 +23°C° 0 mm 6 mps 631 mmHg 43%
    10:00 +26°C° 0 mm 6 mps 631 mmHg 39%
    11:00 +28°C° 0 mm 7 mps 631 mmHg 36%
    12:00 +30°C° 0 mm 6 mps 631 mmHg 32%
    13:00 +32°C° 0 mm 6 mps 631 mmHg 29%
    14:00 +33°C° 0 mm 6 mps 630 mmHg 25%
    15:00 +33°C° 0 mm 6 mps 630 mmHg 26%
    16:00 +32°C° 0 mm 6 mps 629 mmHg 27%
    17:00 +32°C° 0 mm 5 mps 629 mmHg 28%
    18:00 +29°C° 0 mm 4 mps 628 mmHg 32%
    19:00 +27°C° 0 mm 3 mps 628 mmHg 37%
    20:00 +25°C° 0 mm 2 mps 628 mmHg 42%
    21:00 +24°C° 0.1 mm 2 mps 628 mmHg 44%
    22:00 +24°C° 0.1 mm 2 mps 628 mmHg 46%
    23:00 +23°C° 0.1 mm 2 mps 628 mmHg 49%

    22 January, Tuesday

    Time Temperature Precipitation Wind Pressure Humidity
    00:00 +21°C° 0 mm 2 mps 627 mmHg 50%
    01:00 +21°C° 0 mm 2 mps 627 mmHg 52%
    02:00 +20°C° 0 mm 2 mps 627 mmHg 53%
    03:00 +20°C° 0 mm 2 mps 627 mmHg 55%
    04:00 +19°C° 0 mm 2 mps 627 mmHg 57%
    05:00 +19°C° 0 mm 2 mps 626 mmHg 59%
    06:00 +21°C° 0 mm 2 mps 627 mmHg 53%
    07:00 +24°C° 0 mm 3 mps 629 mmHg 47%
    08:00 +26°C° 0 mm 4 mps 630 mmHg 41%
    09:00 +28°C° 0 mm 4 mps 630 mmHg 36%
    10:00 +30°C° 0 mm 4 mps 630 mmHg 30%
    11:00 +33°C° 0 mm 4 mps 630 mmHg 24%
    12:00 +34°C° 0 mm 4 mps 630 mmHg 20%
    13:00 +35°C° 0 mm 4 mps 630 mmHg 16%
    14:00 +36°C° 0 mm 4 mps 629 mmHg 13%
    15:00 +36°C° 0 mm 4 mps 629 mmHg 11%
    16:00 +36°C° 0 mm 4 mps 629 mmHg 10%
    17:00 +36°C° 0 mm 4 mps 628 mmHg 9%
    18:00 +33°C° 0 mm 3 mps 627 mmHg 10%
    19:00 +29°C° 0 mm 2 mps 627 mmHg 12%
    20:00 +25°C° 0 mm 1 mps 626 mmHg 14%
    21:00 +25°C° 0 mm 1 mps 626 mmHg 15%
    22:00 +24°C° 0 mm 1 mps 626 mmHg 16%
    23:00 +23°C° 0 mm 1 mps 626 mmHg 17%

    23 January, Wednesday

    Time Temperature Precipitation Wind Pressure Humidity
    00:00 +22°C° 0 mm 1 mps 626 mmHg 23%
    01:00 +21°C° 0 mm 2 mps 625 mmHg 28%
    02:00 +20°C° 0 mm 2 mps 625 mmHg 33%
    03:00 +20°C° 0 mm 2 mps 625 mmHg 39%
    04:00 +19°C° 0 mm 2 mps 625 mmHg 45%
    05:00 +19°C° 0 mm 2 mps 625 mmHg 51%
    06:00 +21°C° 0 mm 3 mps 626 mmHg 45%
    07:00 +23°C° 0 mm 4 mps 627 mmHg 38%
    08:00 +27°C° 0 mm 5 mps 628 mmHg 31%
    09:00 +29°C° 0 mm 5 mps 628 mmHg 27%
    10:00 +32°C° 0 mm 5 mps 628 mmHg 22%
    11:00 +34°C° 0 mm 5 mps 628 mmHg 17%
    12:00 +35°C° 0 mm 5 mps 628 mmHg 15%
    13:00 +36°C° 0 mm 5 mps 628 mmHg 12%
    14:00 +38°C° 0 mm 6 mps 628 mmHg 10%
    15:00 +38°C° 0 mm 6 mps 628 mmHg 9%
    16:00 +38°C° 0 mm 6 mps 627 mmHg 8%
    17:00 +36°C° 0 mm 7 mps 627 mmHg 7%
    18:00 +34°C° 0 mm 6 mps 627 mmHg 9%
    19:00 +30°C° 0 mm 5 mps 626 mmHg 11%
    20:00 +27°C° 0 mm 3 mps 626 mmHg 13%
    21:00 +26°C° 0 mm 3 mps 626 mmHg 19%
    22:00 +24°C° 0 mm 3 mps 626 mmHg 25%
    23:00 +23°C° 0 mm 2 mps 626 mmHg 31%

    24 January, Thursday

    Time Temperature Precipitation Wind Pressure Humidity
    00:00 +20°C° 0 mm 2 mps 626 mmHg 40%
    01:00 +20°C° 0 mm 1 mps 626 mmHg 48%
    02:00 +19°C° 0 mm 1 mps 625 mmHg 57%
    03:00 +19°C° 0 mm 1 mps 625 mmHg 60%
    04:00 +18°C° 0 mm 1 mps 625 mmHg 63%
    05:00 +18°C° 0 mm 1 mps 625 mmHg 67%
    06:00 +20°C° 0 mm 1 mps 626 mmHg 60%
    07:00 +22°C° 0 mm 1 mps 627 mmHg 54%
    08:00 +24°C° 0 mm 1 mps 628 mmHg 47%
    09:00 +26°C° 0 mm 2 mps 628 mmHg 41%
    10:00 +28°C° 0 mm 2 mps 628 mmHg 35%
    11:00 +30°C° 0 mm 3 mps 629 mmHg 28%
    12:00 +31°C° 0 mm 3 mps 629 mmHg 25%
    13:00 +34°C° 0 mm 4 mps 629 mmHg 22%
    14:00 +35°C° 0 mm 4 mps 628 mmHg 18%
    15:00 +35°C° 0 mm 3 mps 628 mmHg 18%
    16:00 +34°C° 0 mm 3 mps 628 mmHg 18%
    17:00 +34°C° 0 mm 2 mps 627 mmHg 17%
    18:00 +31°C° 0 mm 2 mps 627 mmHg 20%
    19:00 +29°C° 0 mm 2 mps 627 mmHg 23%
    20:00 +27°C° 0 mm 2 mps 626 mmHg 26%
    21:00 +25°C° 0 mm 2 mps 627 mmHg 34%
    22:00 +24°C° 0 mm 2 mps 627 mmHg 42%
    23:00 +21°C° 0 mm 2 mps 627 mmHg 51%
    Show more